Temp
16 15 15 15 15 15 15 14 14 14 13 13 13 13 13 12 12 11 12 12 12 11 11 10 10 10 9 9 9 9 9 9 9 9 9 9 9 10 10 11 10 10 10
12 13 14 15 15 15 14 14 14 14 13 13 13 13 13 12 11 11 11 11 11 11 10 10 10 10 9 9 9 9 9 9 9 9 9 9 9 9 10 10 10 10 10
10 12 13 14 15 14 14 14 14 14 13 13 13 13 12 12 12 11 11 10 11 11 10 10 10 10 9 9 9 8 9 8 8 9 9 8 8 8 9 9 9 9 9
6 8 11 12 13 14 14 13 13 14 13 13 12 12 13 12 12 11 11 11 11 11 10 10 10 10 10 9 9 8 9 9 8 8 8 9 9 8 8 9 9 9 9
1 3 6 8 10 12 13 13 13 13 13 13 12 12 12 12 12 12 12 12 11 10 10 10 10 9 9 9 9 8 8 8 8 8 8 8 9 9 9 8 9 8 9
1 2 2 3 6 9 11 12 12 12 13 12 12 12 12 12 12 12 12 12 11 11 10 10 10 10 9 9 9 8 8 8 8 8 8 9 9 10 10 9 9 8 8
-1 1 2 3 3 5 7 9 10 10 12 12 12 12 12 11 11 12 12 11 11 11 11 11 10 9 9 9 9 9 9 8 8 8 8 8 9 9 10 10 9 8 8
-3 -2 -0 1 3 4 5 7 8 9 10 11 12 12 12 11 11 11 11 11 11 11 12 11 11 11 10 10 10 9 9 9 8 8 8 8 8 8 8 9 10 9 7
-5 -3 -2 -1 1 3 5 6 7 8 9 9 10 11 11 11 11 11 10 10 11 11 11 11 11 11 11 10 10 10 10 9 9 8 8 8 8 8 8 8 9 9 9
-6 -4 -3 -2 -1 1 3 5 6 7 8 8 9 10 10 10 10 9 9 10 10 10 10 10 10 10 10 10 9 9 9 9 9 9 8 8 8 8 7 7 8 8 8
-7 -6 -5 -3 -2 -1 1 4 5 7 7 9 9 10 10 9 9 9 9 9 9 9 10 10 10 10 10 9 9 9 9 9 9 8 8 8 8 8 7 7 7 8 8
-8 -7 -6 -5 -3 -2 -1 0 3 4 6 8 9 9 8 8 9 9 9 9 10 10 9 9 9 9 9 9 9 8 9 9 8 9 8 8 8 7 7 7 7 7 7
-8 -8 -7 -6 -5 -4 -3 -1 1 3 5 7 7 7 8 8 8 9 9 8 8 9 9 9 9 9 9 8 9 8 8 8 8 8 8 8 8 8 8 7 7 7 7
-9 -9 -8 -8 -7 -6 -4 -3 -1 0 2 4 6 7 7 7 7 8 8 7 7 8 8 8 8 8 7 8 8 7 6 7 6 7 7 8 8 8 8 8 8 7 7
-10 -10 -9 -9 -8 -7 -6 -4 -3 -1 -0 1 3 5 7 6 7 7 7 7 7 7 6 6 6 7 7 7 7 6 5 6 6 6 7 7 8 7 7 7 7 7 7
-11 -11 -10 -9 -9 -8 -7 -6 -4 -3 -2 -1 0 2 4 6 6 6 7 7 6 6 6 6 6 6 6 6 6 6 6 5 5 5 6 6 7 7 7 7 6 7 6
-11 -11 -11 -10 -9 -9 -8 -7 -6 -4 -3 -2 -2 -0 3 4 5 6 6 6 6 6 6 6 6 6 6 6 6 5 5 5 5 5 6 6 6 6 6 6 6 6 6
-12 -11 -11 -11 -10 -9 -8 -7 -7 -5 -5 -4 -2 -1 1 2 3 5 5 6 6 6 6 6 6 6 6 6 6 5 5 5 5 5 6 6 6 6 6 6 5 5 5
-12 -12 -11 -11 -10 -9 -9 -8 -7 -7 -6 -5 -4 -3 -1 0 1 2 3 4 5 5 6 6 6 6 6 5 6 6 6 5 5 5 5 5 6 6 5 5 5 5 5
-13 -12 -11 -11 -10 -10 -9 -9 -8 -7 -7 -7 -6 -5 -3 -1 -1 -1 1 2 3 3 4 4 5 5 5 5 5 5 5 5 5 5 5 5 5 6 6 6 5 6 6
-13 -12 -12 -11 -11 -10 -9 -9 -9 -8 -8 -7 -7 -6 -5 -3 -2 -2 -1 0 2 2 3 3 3 4 4 4 5 5 4 5 5 5 5 5 5 5 5 5 5 5 5
-13 -12 -12 -12 -11 -10 -10 -9 -9 -9 -8 -8 -7 -7 -6 -5 -4 -3 -2 -1 -0 0 1 1 2 2 3 3 3 4 4 4 4 4 4 4 4 4 4 4 4 4 5
-13 -13 -12 -12 -12 -11 -10 -10 -10 -9 -9 -8 -8 -7 -7 -6 -5 -4 -3 -2 -2 -2 -0 0 1 1 2 2 2 3 3 3 3 3 3 3 3 3 4 4 3 4 4
-14 -13 -13 -13 -12 -12 -11 -10 -10 -10 -10 -9 -8 -8 -8 -7 -6 -6 -5 -4 -3 -2 -2 -1 -1 0 1 1 2 2 2 2 2 2 3 3 3 3 3 3 3 3 3
-14 -14 -13 -13 -13 -12 -12 -11 -10 -10 -10 -9 -9 -8 -8 -7 -7 -7 -6 -6 -6 -5 -4 -3 -2 -1 -0 -0 1 2 2 2 2 2 2 3 3 3 2 3 3 2 2
-14 -14 -14 -13 -13 -12 -12 -11 -11 -10 -10 -9 -9 -10 -9 -7 -7 -6 -6 -7 -7 -7 -7 -5 -4 -3 -3 -1 -0 0 1 1 1 1 1 2 2 2 2 1 1 1 1
Height
1449 1453 1457 1460 1465 1469 1473 1476 1481 1486 1490 1493 1497 1502 1505 1510 1514 1517 1522 1526 1529 1532 1536 1540 1543 1547 1550 1553 1557 1560 1563 1565 1568 1571 1574 1576 1578 1580 1581 1584 1584 1585 1587
1443 1445 1450 1455 1459 1464 1468 1472 1476 1481 1484 1489 1494 1498 1502 1505 1508 1513 1518 1522 1526 1530 1534 1537 1540 1544 1548 1551 1554 1557 1559 1563 1566 1569 1573 1575 1578 1578 1579 1581 1583 1585 1587
1441 1443 1445 1449 1453 1457 1462 1467 1471 1475 1479 1485 1490 1494 1498 1502 1506 1509 1514 1518 1522 1526 1529 1533 1537 1540 1545 1547 1550 1553 1556 1560 1563 1567 1570 1573 1573 1575 1577 1578 1580 1583 1584
1440 1441 1442 1444 1447 1451 1456 1462 1467 1471 1475 1480 1484 1488 1492 1495 1499 1505 1510 1514 1517 1521 1526 1530 1533 1537 1540 1544 1547 1551 1554 1557 1560 1564 1566 1567 1568 1571 1574 1576 1578 1579 1580
1442 1442 1441 1442 1444 1447 1450 1456 1462 1467 1471 1476 1480 1484 1488 1493 1497 1501 1505 1509 1514 1517 1522 1525 1529 1533 1536 1539 1543 1546 1550 1553 1557 1559 1561 1564 1566 1567 1568 1569 1573 1577 1577
1445 1445 1444 1442 1442 1443 1446 1451 1456 1462 1467 1472 1476 1480 1484 1488 1493 1496 1500 1504 1509 1513 1517 1521 1525 1528 1531 1534 1538 1542 1545 1548 1552 1555 1557 1559 1561 1563 1565 1567 1569 1571 1574
1447 1446 1445 1444 1443 1442 1443 1447 1451 1456 1462 1468 1472 1476 1480 1484 1488 1492 1496 1499 1504 1507 1511 1516 1519 1522 1525 1529 1533 1535 1539 1542 1545 1549 1552 1556 1558 1562 1564 1565 1566 1567 1570
1450 1449 1446 1445 1443 1443 1443 1445 1448 1452 1456 1462 1468 1473 1476 1480 1483 1487 1491 1495 1498 1502 1506 1511 1515 1517 1521 1524 1527 1529 1533 1537 1540 1543 1547 1551 1554 1557 1560 1563 1564 1565 1566
1454 1451 1449 1447 1444 1443 1443 1443 1445 1449 1452 1457 1462 1467 1471 1475 1478 1482 1486 1490 1493 1497 1501 1505 1508 1511 1515 1518 1521 1523 1526 1529 1533 1537 1541 1545 1549 1552 1555 1558 1560 1561 1561
1457 1455 1452 1449 1448 1446 1444 1444 1444 1447 1449 1453 1457 1462 1466 1470 1474 1477 1481 1484 1487 1490 1494 1497 1501 1505 1508 1511 1513 1516 1520 1523 1526 1530 1534 1539 1542 1547 1549 1552 1555 1556 1558
1462 1458 1456 1453 1451 1448 1445 1444 1444 1446 1448 1450 1454 1459 1462 1466 1469 1471 1475 1477 1481 1484 1487 1490 1493 1496 1498 1501 1505 1508 1512 1515 1520 1524 1528 1532 1537 1540 1543 1546 1550 1551 1553
1466 1462 1458 1455 1451 1448 1446 1444 1444 1444 1446 1446 1451 1455 1457 1460 1463 1467 1468 1471 1473 1476 1479 1482 1485 1488 1490 1491 1495 1499 1503 1507 1513 1516 1521 1525 1529 1533 1536 1539 1541 1545 1548
1469 1465 1460 1457 1454 1451 1449 1446 1444 1443 1442 1445 1449 1452 1454 1455 1459 1460 1462 1463 1466 1469 1471 1474 1477 1479 1480 1483 1487 1491 1495 1499 1504 1510 1515 1519 1523 1526 1529 1532 1534 1537 1541
1473 1469 1465 1461 1458 1455 1452 1449 1447 1445 1443 1445 1446 1448 1449 1452 1455 1456 1459 1460 1462 1464 1466 1468 1470 1473 1475 1478 1481 1485 1488 1493 1496 1503 1508 1513 1517 1520 1524 1526 1528 1531 1534
1477 1473 1470 1466 1462 1458 1456 1453 1451 1448 1446 1445 1443 1443 1447 1450 1452 1455 1456 1458 1459 1461 1463 1465 1467 1468 1471 1474 1477 1480 1483 1487 1491 1497 1503 1508 1511 1515 1517 1520 1522 1524 1527
1482 1479 1475 1471 1466 1463 1459 1456 1453 1450 1449 1447 1443 1446 1441 1446 1450 1452 1453 1455 1457 1459 1462 1463 1464 1465 1467 1470 1474 1476 1478 1481 1485 1490 1496 1501 1504 1507 1511 1513 1516 1518 1520
1486 1483 1480 1476 1472 1467 1463 1459 1455 1452 1450 1448 1447 1445 1441 1444 1445 1448 1451 1452 1456 1458 1459 1460 1461 1463 1465 1467 1470 1473 1476 1479 1482 1486 1490 1494 1497 1500 1504 1506 1509 1510 1512
1491 1487 1483 1479 1475 1472 1467 1464 1459 1455 1454 1451 1447 1443 1443 1444 1445 1447 1449 1451 1453 1456 1457 1458 1459 1461 1463 1466 1469 1471 1474 1477 1480 1484 1486 1489 1492 1495 1497 1500 1501 1502 1504
1494 1490 1486 1483 1478 1476 1472 1467 1462 1460 1457 1454 1449 1446 1446 1446 1447 1448 1449 1450 1451 1452 1455 1457 1458 1460 1461 1464 1467 1468 1470 1473 1477 1479 1483 1484 1486 1488 1489 1491 1493 1496 1497
1495 1491 1488 1485 1481 1478 1473 1469 1467 1463 1459 1457 1454 1451 1450 1450 1450 1450 1447 1449 1450 1452 1454 1454 1457 1459 1460 1464 1465 1467 1468 1471 1474 1473 1476 1479 1481 1482 1484 1486 1487 1489 1491
1496 1493 1489 1486 1482 1480 1474 1470 1469 1467 1466 1462 1458 1456 1453 1450 1449 1450 1451 1451 1452 1452 1452 1454 1457 1458 1460 1462 1463 1466 1466 1468 1470 1472 1474 1476 1478 1479 1480 1482 1483 1484 1485
1498 1494 1491 1488 1484 1482 1477 1472 1472 1471 1468 1465 1462 1459 1456 1454 1453 1453 1453 1452 1453 1452 1454 1456 1457 1458 1460 1461 1462 1464 1465 1468 1469 1471 1470 1473 1475 1476 1476 1478 1479 1479 1481
1498 1495 1493 1490 1487 1484 1480 1476 1477 1473 1470 1468 1465 1462 1461 1458 1456 1455 1454 1453 1454 1454 1454 1455 1455 1458 1460 1461 1463 1463 1464 1465 1467 1468 1468 1469 1471 1473 1473 1473 1475 1475 1475
1499 1497 1494 1491 1489 1486 1484 1480 1480 1476 1475 1472 1468 1466 1464 1461 1457 1456 1455 1455 1454 1454 1453 1455 1458 1458 1459 1461 1462 1462 1462 1462 1463 1465 1466 1466 1467 1469 1469 1471 1472 1473 1473
1501 1498 1495 1494 1493 1490 1487 1483 1483 1480 1479 1474 1471 1468 1467 1464 1461 1458 1457 1456 1456 1456 1455 1456 1457 1456 1456 1459 1458 1458 1458 1459 1460 1461 1463 1464 1465 1466 1467 1468 1469 1470 1471
1501 1500 1498 1497 1495 1491 1489 1487 1485 1481 1479 1476 1472 1469 1469 1466 1463 1461 1461 1460 1459 1458 1458 1456 1454 1453 1454 1454 1455 1456 1456 1457 1457 1459 1461 1462 1463 1464 1465 1466 1467 1467 1469
Wind_Speed
26 27 28 28 32 34 32 30 32 31 31 33 33 30 26 33 31 31 28 24 25 23 24 20 18 25 29 28 27 25 24 25 24 23 20 18 19 19 22 21 19 25 21
12 17 26 24 26 33 36 33 32 34 32 32 28 30 29 29 31 34 30 28 26 26 25 23 22 26 30 29 29 28 29 27 27 24 22 19 18 21 21 21 21 23 25
5 7 13 19 26 29 34 36 32 35 34 31 28 28 28 29 31 35 33 32 29 29 28 25 23 25 29 32 33 33 32 32 31 27 19 12 12 22 24 24 23 23 22
4 4 6 11 18 27 30 37 37 35 35 35 34 33 33 34 35 35 30 29 29 31 30 27 25 26 30 32 34 34 32 31 35 33 32 20 11 19 18 26 26 27 29
7 4 2 5 11 20 28 32 36 38 36 34 33 32 34 32 33 29 31 29 31 33 33 29 29 27 30 31 32 35 35 34 34 38 37 33 21 14 17 22 31 33 31
11 8 6 1 4 13 23 29 32 35 36 34 32 30 33 35 34 33 31 30 29 30 34 32 31 29 30 33 35 36 37 37 35 38 38 38 34 26 23 22 31 34 35
16 13 9 8 4 2 13 22 28 30 34 34 32 30 30 32 34 35 34 32 33 34 36 32 33 34 30 32 34 36 38 39 39 38 39 38 38 34 25 22 19 30 33
18 16 15 12 8 5 3 10 19 24 30 34 34 30 29 31 32 33 35 34 33 33 34 32 33 34 32 31 32 36 38 38 40 40 39 38 38 38 35 28 23 22 33
19 18 15 14 12 6 2 7 15 21 27 30 33 33 30 32 32 31 31 31 29 31 36 36 38 38 37 36 35 36 37 39 39 40 39 38 37 38 37 34 29 25 22
20 20 18 15 14 9 4 4 9 16 21 24 29 29 25 28 30 28 29 30 30 31 32 33 36 38 39 42 41 40 40 40 39 40 40 38 37 36 37 36 31 26 24
22 21 19 18 15 12 8 5 6 14 17 21 25 24 24 25 26 28 30 32 33 35 36 36 36 38 41 42 45 43 43 41 41 38 39 38 35 36 35 36 35 31 28
23 23 21 20 19 17 14 12 6 7 10 20 20 21 23 26 26 28 31 32 34 33 37 37 40 41 43 44 45 46 45 42 41 38 38 35 34 35 34 35 37 36 32
25 26 25 24 23 21 18 15 10 6 6 12 16 21 21 22 23 22 19 24 23 29 29 33 32 37 44 43 39 41 46 45 41 39 37 33 33 33 33 34 36 37 35
26 28 28 26 24 22 20 16 15 10 6 9 16 18 23 19 17 18 16 16 15 14 14 19 26 31 34 35 39 40 43 41 42 35 32 32 32 31 31 33 34 34 34
26 29 30 28 25 23 21 17 14 14 10 8 9 15 20 19 13 14 11 8 8 10 10 11 13 19 22 25 28 33 36 40 38 34 33 32 30 29 29 30 32 32 32
26 28 28 27 27 25 23 19 16 13 11 11 14 9 15 16 15 14 12 11 9 9 8 9 12 15 18 18 21 23 27 33 34 30 29 29 28 28 27 28 29 29 32
27 26 27 26 25 24 22 21 18 14 12 10 12 13 14 12 13 14 12 11 12 7 8 6 7 10 15 14 14 18 21 22 25 24 23 25 26 27 28 29 30 31 32
24 24 23 24 23 21 19 17 16 15 14 12 13 13 13 12 10 8 10 13 14 11 10 7 5 5 14 15 15 19 21 26 23 27 25 25 28 29 29 30 31 31 32
20 20 20 21 22 21 20 19 17 16 15 16 15 13 12 10 12 12 13 13 10 10 10 10 9 9 10 11 9 9 12 24 30 33 33 30 29 34 30 29 24 25 27
19 19 19 20 21 22 22 22 21 18 19 18 17 14 11 8 8 10 12 12 13 13 12 11 10 7 11 14 13 12 9 13 14 12 11 21 18 19 20 24 26 27 24
18 17 19 22 22 22 22 24 23 23 20 18 16 14 13 11 8 7 6 8 7 9 10 9 9 9 7 5 3 4 4 6 8 10 11 12 14 15 16 18 20 21 21
19 18 18 20 21 22 22 24 24 21 19 18 17 16 15 12 11 8 4 4 2 2 3 5 4 4 3 3 3 4 5 6 7 10 11 13 13 14 15 16 18 19 20
19 18 18 18 19 21 23 22 22 21 20 18 18 18 16 13 11 10 10 7 4 4 3 1 1 0 2 4 6 7 5 5 6 8 8 8 9 12 12 12 14 15 15
19 18 18 19 20 20 20 20 20 19 18 18 18 18 18 16 13 11 11 9 7 7 6 3 2 2 1 5 5 8 8 5 6 6 6 7 8 10 10 11 11 11 11
18 18 17 17 19 18 19 18 16 17 17 17 17 17 17 16 16 14 12 11 11 9 7 5 3 2 4 7 7 8 8 9 10 9 9 10 11 11 11 12 13 12 12
17 16 14 15 17 17 18 15 14 14 18 18 18 20 18 16 16 14 11 10 9 7 5 6 8 8 9 10 10 11 11 13 13 12 11 11 14 14 14 14 14 12 13
Wind_Direction
247 243 236 223 223 222 221 223 214 217 218 216 215 215 224 223 219 219 213 220 215 216 212 212 215 203 196 197 198 201 205 199 203 205 192 195 194 199 202 207 209 205 194
239 231 221 220 224 226 223 221 220 217 217 215 215 216 221 225 229 214 214 218 221 219 216 217 221 212 203 201 205 208 205 208 204 206 198 191 203 207 209 204 211 212 220
226 209 213 218 223 223 221 221 222 217 220 220 217 220 222 222 225 215 218 217 223 223 223 219 225 218 210 209 211 210 217 206 205 207 192 178 209 207 214 213 216 215 221
114 166 197 208 212 217 218 218 221 221 222 225 225 227 224 222 224 226 221 220 223 225 224 221 227 225 218 215 215 216 224 223 215 210 213 216 211 196 212 216 215 213 218
48 47 139 204 216 215 215 218 221 223 225 226 227 226 220 226 233 231 225 225 225 227 226 225 226 228 228 227 226 224 228 232 228 222 217 221 226 220 210 209 215 222 220
49 50 43 66 206 214 216 217 219 224 226 227 229 228 224 224 226 230 231 228 227 227 223 230 232 230 232 232 232 234 236 237 235 230 229 231 225 227 223 223 218 213 224
47 41 43 38 48 166 208 212 213 219 224 227 230 234 233 230 232 230 229 233 229 230 230 230 232 234 233 236 235 234 234 236 239 238 236 240 242 241 242 237 239 225 228
38 37 34 35 38 52 140 198 206 210 219 221 225 232 237 234 235 235 235 236 240 235 230 237 236 241 245 242 241 238 238 237 238 241 240 242 244 244 242 245 248 239 231
29 30 35 36 36 42 92 191 203 210 216 222 222 225 233 232 233 235 237 239 242 240 239 244 239 240 245 241 241 242 239 239 239 240 241 242 243 244 245 246 250 251 242
25 31 34 35 37 42 69 142 197 207 210 219 220 223 232 235 231 232 236 238 238 239 243 244 244 246 250 249 242 243 243 240 241 240 240 241 241 242 244 246 248 248 249
19 25 32 36 38 45 62 105 163 203 194 194 211 217 230 233 233 234 236 237 242 244 247 249 247 249 250 246 244 243 245 242 241 241 242 241 242 244 242 242 245 245 249
22 27 31 33 36 40 44 57 91 130 181 195 206 216 228 236 239 234 238 240 241 247 247 249 246 251 252 245 243 242 244 242 239 243 241 241 242 244 243 240 241 245 250
23 28 32 31 31 32 36 43 56 84 156 185 188 202 207 208 212 220 231 232 236 237 241 248 248 253 253 245 239 241 243 241 238 239 242 242 243 245 245 242 240 242 247
23 24 29 28 28 29 30 34 46 60 109 158 179 191 197 202 210 217 227 230 221 227 239 248 250 254 250 246 240 242 244 241 239 237 243 247 247 249 249 246 243 243 245
21 22 24 24 24 25 27 32 40 56 74 107 129 163 193 198 192 192 189 195 195 206 221 236 246 252 250 251 250 249 245 240 237 233 243 246 249 251 253 253 248 245 247
18 19 21 21 21 19 20 24 32 39 55 70 88 111 145 178 190 185 190 195 211 219 212 228 242 249 246 247 246 244 242 237 228 229 242 248 250 252 251 250 251 247 249
20 20 22 22 20 18 18 21 28 35 38 54 66 82 107 133 176 196 201 210 216 213 227 227 239 240 234 236 240 239 229 230 231 229 239 244 246 248 247 246 247 249 248
17 17 22 24 25 22 21 23 30 41 41 45 51 67 86 107 122 160 174 203 216 215 223 216 173 223 230 226 233 236 234 234 232 233 235 257 253 250 248 249 248 249 248
16 18 24 27 30 29 31 28 28 37 48 45 42 54 70 78 92 106 120 143 166 180 216 202 199 205 214 211 222 217 240 239 230 233 235 245 247 242 248 250 250 256 260
18 18 24 27 30 31 35 35 35 35 37 36 40 47 59 77 71 73 92 115 139 138 154 150 172 181 185 223 232 242 223 219 232 233 227 248 246 246 239 242 238 240 240
15 19 27 28 27 25 35 38 35 34 32 32 40 48 55 68 69 59 69 97 114 116 127 134 136 141 154 165 204 226 220 226 221 227 235 241 242 241 241 243 245 247 250
15 21 23 24 26 23 28 35 31 30 27 30 33 40 47 57 71 81 82 74 114 128 117 116 133 134 146 217 227 255 266 260 253 256 248 253 249 248 245 248 249 246 246
13 16 17 20 24 24 24 26 23 25 26 26 28 33 36 41 56 65 72 84 107 129 153 156 199 197 222 237 244 236 214 229 237 246 249 251 256 250 256 250 249 247 242
12 13 15 17 17 19 21 23 16 20 21 27 27 30 28 26 35 46 50 46 50 63 76 107 195 178 202 224 238 239 247 239 244 244 252 257 260 263 261 256 257 252 241
8 11 14 16 13 13 16 20 14 17 15 24 25 31 26 28 37 33 31 34 30 14 358 343 329 292 250 260 251 250 251 253 258 263 266 265 266 266 264 264 264 255 247
1 4 10 12 12 13 13 17 17 18 12 17 19 18 14 20 25 29 47 34 38 36 16 344 323 316 300 285 272 260 253 255 254 258 255 257 263 269 268 264 262 260 252